Home   Weather   Cambridge   Past weeks
Flag for USA

Past Weather in Cambridge, Massachusetts, USA — Yesterday and Last 2 Weeks

Now
77 °F

Thunderstorms. Cloudy.


Feels Like: 78 °F
Forecast: 86 / 75 °F
Wind: 10 mph from Southwest

Location: Logan International Airport

Current Time: Jul 17, 2019 at 6:54:04 pm

Latest Report: Jul 17, 2019 at 6:09 pm


Visibility: 3 mi

Pressure: 29.89 "Hg

Humidity: 88%

Dew Point: 73 °F

Location of CambridgeLocation

Past Weather in Cambridge — Graph

°F

Cambridge Temperature Yesterday

Maximum temperature yesterday: 89 °F (at 4:54 pm)
Minimum temperature yesterday: 71 °F (at 4:54 am)
Average temperature yesterday: 80 °F

High & Low Weather Summary for the Past Weeks

 TemperatureHumidityPressure
High94 °F (Jul 6, 3:54 pm)94% (Jul 12, 10:31 am)30.16 "Hg (Jul 12, 10:31 am)
Low66 °F (Jul 8, 4:54 am)26% (Jul 9, 5:54 pm)29.66 "Hg (Jul 12, 2:54 pm)
Average78 °F61%29.92 "Hg
* Reported Jul 2 4:54 pm — Jul 17 4:54 pm, Cambridge. Weather by CustomWeather, © 2019

Note: Actual official high and low records may vary slightly from our data, if they occured in-between our weather recording intervals... More about our weather records

Advertising

Cambridge Weather History for the Previous 24 Hours

Scroll right to see more
 ConditionsComfort  
Time TempWeatherWind HumidityBarometerVisibility
4:54 pm
Wed, Jul 17
88 °FThunderstorms. Broken clouds.9 mph57%29.83 "Hg10 mi
4:27 pm85 °FThundershowers. Cloudy.15 mph65%29.83 "Hg10 mi
4:14 pm87 °FThunderstorms. Cloudy.15 mph59%29.84 "Hg10 mi
3:54 pm91 °FBroken clouds.6 mph50%29.82 "Hg10 mi
2:54 pm91 °FBroken clouds.14 mph50%29.85 "Hg10 mi
1:54 pm91 °FBroken clouds.9 mph52%29.86 "Hg10 mi
12:54 pm92 °FBroken clouds.15 mph51%29.88 "Hg10 mi
11:54 am87 °FPartly sunny.14 mph59%29.90 "Hg10 mi
10:54 am84 °FMostly cloudy.10 mph61%29.91 "Hg10 mi
9:54 am83 °FOvercast.13 mph63%29.92 "Hg10 mi
8:54 am82 °FPartly sunny.15 mph63%29.93 "Hg10 mi
7:54 am81 °FPartly sunny.14 mph65%29.92 "Hg10 mi
6:54 am79 °FPartly sunny.12 mph69%29.92 "Hg10 mi
5:54 am78 °FScattered clouds.13 mph71%29.91 "Hg10 mi
4:54 am78 °FPassing clouds.16 mph71%29.91 "Hg10 mi
3:54 am78 °FPassing clouds.13 mph69%29.90 "Hg10 mi
2:54 am78 °FPassing clouds.14 mph66%29.92 "Hg10 mi
1:54 am79 °FPassing clouds.16 mph62%29.93 "Hg10 mi
12:54 am79 °FPassing clouds.13 mph62%29.94 "Hg10 mi
11:54 pm
Tue, Jul 16
80 °FPassing clouds.12 mph62%29.95 "Hg10 mi
10:54 pm82 °FPassing clouds.15 mph58%29.96 "Hg10 mi
9:54 pm82 °FPassing clouds.12 mph58%29.97 "Hg10 mi
8:54 pm81 °FPassing clouds.9 mph60%29.96 "Hg10 mi
7:54 pm83 °FPartly sunny.14 mph53%29.95 "Hg10 mi
6:54 pm84 °FBroken clouds.8 mph51%29.95 "Hg10 mi
Weather by CustomWeather, © 2019

See weather overview